Theta_e
367 367 367 365 364 363 353 347 326 333 324 311 312 315 313 323 323 322 322 325 320 327 332 334 333 333 328 328 329 331 335 330 329 319 319 339 351 351 352 353 355 354 356 360 362 362 360 358 357 363 366 366 367 367 367 367 368 369 369 368 368 367 367 368 368 369 366 367 368 368 369 369 368 367 365 363 364 365 365 365 365 366 366 365 365 366 366 366 367 366 365 366 367 369 368 368 368
360 362 366 369 364 353 341 343 323 313 314 309 310 314 316 321 322 320 320 323 325 328 331 332 332 333 334 334 333 337 337 339 339 338 343 351 354 349 350 352 353 353 354 357 364 364 365 362 362 362 364 368 368 369 369 368 369 369 368 368 368 368 368 368 368 368 369 369 370 370 369 369 368 367 365 364 364 365 365 365 365 366 365 366 366 365 366 367 366 365 364 364 365 366 367 369 369
356 359 363 364 355 351 346 340 317 312 309 306 311 316 322 318 319 321 323 325 329 332 334 334 334 333 332 331 328 328 327 341 341 344 344 352 346 349 351 352 354 355 356 355 364 364 361 359 360 365 367 368 369 369 368 369 369 369 369 368 367 368 368 367 368 368 368 368 368 369 368 368 367 366 366 365 366 366 366 365 365 366 366 365 365 365 365 366 366 366 366 365 363 364 367 367 368
358 358 359 356 344 350 337 336 317 311 308 309 310 317 318 319 321 324 327 330 330 332 331 329 327 334 329 324 328 333 332 337 343 344 343 347 350 355 354 356 358 355 354 357 363 361 362 360 362 366 368 368 368 368 368 370 369 370 368 367 367 366 366 366 366 368 368 368 369 370 368 368 368 367 366 365 364 365 366 366 366 366 366 366 366 366 366 366 366 365 365 366 364 364 365 364 365
355 358 361 354 345 337 332 319 315 316 310 312 310 318 320 320 318 320 321 324 328 329 330 330 329 334 334 331 331 326 328 340 342 345 346 350 357 359 356 358 358 358 353 356 363 363 365 366 366 368 368 368 367 367 369 369 370 368 367 367 366 366 366 366 366 367 367 367 368 369 369 368 367 366 366 364 364 364 366 366 366 366 366 366 365 365 364 364 364 364 364 363 362 361 362 363 364
353 353 360 352 339 343 333 316 315 314 316 318 315 319 323 324 325 325 326 328 329 330 331 331 328 327 326 329 333 330 338 331 342 345 349 347 355 360 361 362 359 357 362 362 364 367 366 368 368 368 367 367 369 370 367 368 369 368 368 367 366 365 364 365 365 367 366 366 365 366 366 367 367 366 365 365 365 365 365 366 365 365 365 365 365 365 364 363 363 364 363 363 362 360 359 363 364
352 349 341 344 344 344 317 314 313 314 317 322 318 318 320 322 323 323 321 320 321 323 328 329 332 330 326 332 335 339 342 341 340 345 351 354 356 360 360 358 358 357 361 365 365 365 367 368 369 369 368 368 368 369 366 369 369 368 367 367 365 365 365 364 365 365 366 365 364 365 364 365 365 365 366 365 364 364 364 364 364 363 364 364 364 363 362 362 362 362 363 363 362 360 362 361 361
361 342 337 329 324 325 314 314 315 318 317 321 322 321 322 322 323 323 322 323 322 324 327 330 331 329 327 336 328 340 344 344 344 351 352 354 357 360 362 363 359 358 363 365 364 364 369 366 368 368 367 368 368 368 367 369 370 368 368 366 366 365 364 364 365 365 365 364 364 364 363 363 364 364 364 364 364 364 363 362 362 361 361 361 361 361 361 362 362 362 362 363 363 362 363 362 362
347 342 342 331 320 320 316 314 316 321 321 325 325 328 330 323 322 320 320 320 320 323 324 327 331 325 326 331 333 339 341 346 347 352 352 355 357 358 360 360 360 360 361 362 363 363 362 364 368 368 369 369 369 369 369 369 368 368 368 367 367 366 365 365 366 365 365 364 363 364 364 364 364 364 364 363 363 362 362 361 361 360 359 359 359 360 360 359 359 359 359 360 361 362 364 365 366
343 338 326 325 324 313 314 314 316 320 320 321 320 321 323 324 325 326 324 324 324 325 326 331 332 328 332 329 333 337 340 346 348 348 350 352 355 360 361 362 363 361 362 363 362 363 364 369 368 370 369 369 369 369 369 368 367 367 367 366 367 367 367 366 366 365 364 364 364 364 364 364 364 364 363 363 362 362 361 360 359 359 359 358 359 358 359 362 365 364 364 364 365 365 365 365 365
335 335 334 321 315 315 312 314 317 321 321 324 324 326 326 326 325 324 325 324 326 324 327 330 328 329 332 331 334 343 345 346 344 343 351 352 353 358 359 361 360 362 362 364 365 364 366 367 371 368 370 369 369 368 368 368 367 366 367 367 368 367 366 365 365 364 363 362 363 363 364 363 363 362 362 362 362 361 360 360 359 359 358 360 358 356 359 362 362 364 366 366 365 366 366 367 366
330 322 326 316 315 314 315 316 318 319 322 323 322 325 325 324 325 321 322 320 323 325 327 332 329 336 330 330 332 340 344 344 344 347 350 353 352 352 355 359 361 361 361 363 367 368 368 370 370 372 371 370 369 366 366 367 365 367 367 367 368 366 365 364 363 363 363 362 363 363 363 362 362 361 361 361 360 360 359 358 359 358 360 360 358 356 356 362 362 364 364 366 365 365 367 368 369
329 330 321 316 316 317 319 317 320 322 321 321 322 327 329 325 322 323 324 325 326 327 328 333 335 334 327 330 337 339 340 344 347 350 351 354 357 355 358 359 359 360 362 364 364 368 370 369 368 369 370 368 368 368 368 367 366 366 370 367 366 366 364 364 364 363 363 363 362 362 362 362 361 360 359 359 359 359 359 358 357 359 359 359 359 358 358 360 363 364 365 366 366 367 367 367 368
329 325 323 316 321 317 316 316 319 317 318 323 327 328 329 327 326 326 327 325 325 323 329 334 335 337 331 332 332 335 339 346 349 349 351 355 355 355 357 355 359 358 362 364 365 366 367 369 369 368 369 368 368 369 371 371 369 369 369 368 366 364 364 364 364 363 362 362 362 363 364 364 363 361 360 359 360 359 360 360 361 362 361 361 361 362 363 362 362 363 365 366 366 367 367 367 368
327 328 323 320 317 318 317 314 317 319 318 325 326 327 327 329 329 329 328 325 325 331 334 337 337 332 325 329 329 335 340 345 348 349 353 357 357 357 353 357 358 358 359 359 364 365 367 366 367 369 370 368 368 371 369 368 369 369 369 368 367 365 364 364 364 363 363 364 364 366 365 365 364 363 362 362 360 362 362 361 361 361 361 363 363 365 365 365 364 364 366 366 366 366 367 368 368
329 327 321 316 313 315 316 317 320 318 318 327 329 330 328 329 330 326 328 329 330 336 335 328 337 329 332 334 336 340 343 346 349 352 356 352 353 354 356 356 354 356 359 361 361 364 367 367 368 370 370 370 372 371 371 368 366 368 370 369 367 365 365 366 365 365 364 365 367 366 365 365 363 361 361 360 361 363 364 364 361 363 364 364 366 366 366 367 367 367 362 363 362 364 366 367 368
331 327 317 313 311 313 316 317 320 315 323 326 330 330 327 328 332 331 333 333 330 332 333 332 333 335 334 336 342 343 346 350 353 353 354 354 349 347 352 352 356 355 357 359 362 363 365 366 368 365 366 365 366 368 365 368 365 368 369 369 367 365 367 367 368 367 368 367 368 367 366 365 366 367 365 359 360 360 365 366 365 365 365 365 366 367 368 369 362 359 358 357 358 360 362 361 360
329 321 316 311 313 313 317 317 321 325 323 325 329 329 326 325 329 330 335 334 333 335 332 334 335 334 338 342 344 345 347 348 348 349 350 351 351 347 347 350 351 352 358 360 364 363 365 369 369 365 364 364 367 367 366 369 370 367 367 368 367 366 368 368 368 367 369 368 368 368 368 366 368 368 359 358 356 358 360 365 366 366 366 365 365 366 367 367 362 355 355 358 360 361 360 354 355
322 320 316 311 315 316 320 322 324 324 323 327 328 331 330 327 329 332 329 329 333 330 331 333 332 336 341 343 343 343 345 345 344 346 347 347 346 345 343 346 350 351 350 353 360 362 362 361 367 368 371 373 370 369 369 369 366 369 371 369 365 365 369 370 367 367 367 368 368 367 367 366 367 366 358 359 360 360 359 365 362 358 365 363 362 362 364 358 359 356 357 359 359 360 357 356 354
323 317 313 313 319 320 323 325 324 327 327 325 327 328 329 330 330 334 328 327 331 330 331 332 333 334 337 340 342 342 342 343 345 345 345 347 347 345 345 345 347 351 351 351 355 362 361 367 368 361 366 370 371 367 366 367 366 366 365 365 363 368 366 368 369 370 369 368 369 369 373 368 367 365 365 364 360 355 359 361 359 361 363 359 359 359 356 355 352 353 356 357 358 357 356 354 352
321 318 314 315 319 319 322 325 326 327 328 327 326 328 328 331 332 332 327 325 328 329 333 333 334 336 337 339 340 341 340 341 342 344 344 345 344 345 344 347 346 348 351 352 355 359 364 365 367 364 367 368 369 368 365 366 366 367 367 373 373 372 369 372 370 366 365 365 368 370 363 367 365 360 356 358 358 359 357 352 351 350 350 350 355 352 350 351 349 348 354 357 357 356 354 353 352
320 318 319 319 320 320 324 326 328 328 328 327 327 325 325 330 331 328 330 326 326 330 334 336 338 338 337 338 339 340 339 338 340 341 342 341 342 345 343 345 348 350 350 350 352 357 359 363 364 366 367 368 368 367 368 369 370 368 370 375 376 372 371 370 371 366 365 366 366 363 364 361 361 358 358 356 356 356 355 354 351 351 351 349 352 351 350 349 350 350 350 348 349 355 353 351 353
315 318 320 322 323 322 326 325 325 326 327 326 325 328 331 328 329 331 331 329 329 336 338 338 338 340 340 341 339 339 339 339 339 340 341 343 342 345 343 344 347 348 348 349 353 356 359 360 364 363 359 367 363 366 368 373 375 372 373 374 376 375 374 372 373 369 371 369 365 369 364 366 356 353 352 352 353 354 349 349 347 348 350 350 348 348 350 348 348 349 351 351 348 350 351 352 351
319 315 319 320 322 323 325 324 326 326 325 324 327 330 329 330 326 335 331 334 337 339 342 341 342 342 342 338 339 339 340 338 340 342 341 344 344 346 346 344 348 348 349 353 352 355 357 358 365 365 365 365 364 364 366 368 368 367 367 370 364 370 366 364 362 363 360 365 370 371 370 365 355 351 349 349 348 351 350 349 349 352 352 351 354 353 351 354 352 353 351 351 351 350 347 350 349
318 317 321 321 324 323 325 325 324 324 326 329 329 326 327 331 332 334 332 337 339 341 342 341 341 341 340 339 340 340 341 340 340 342 343 346 344 349 347 349 348 350 347 350 354 356 358 363 365 365 365 366 363 364 358 365 366 362 361 365 361 363 356 353 356 360 357 371 364 369 365 360 354 351 350 349 351 352 355 356 354 354 354 356 354 354 356 356 355 353 353 353 353 351 350 348 350
320 320 322 321 322 323 325 323 323 324 324 325 325 325 328 330 333 329 334 337 340 340 340 340 340 339 339 340 341 342 341 339 342 343 342 345 342 347 346 347 348 349 350 352 354 356 358 362 365 363 363 364 364 359 362 361 362 361 365 367 357 360 355 354 355 359 361 364 366 373 369 363 357 353 350 351 350 352 354 355 357 356 357 356 355 355 359 359 356 355 354 353 352 352 350 349 353
323 319 322 322 322 323 323 321 323 324 324 326 323 324 326 330 329 323 332 337 339 339 339 340 339 338 339 340 341 342 341 339 343 344 344 345 347 347 348 347 347 349 351 352 352 354 362 360 359 363 363 366 367 364 364 363 367 367 369 372 367 364 362 356 362 364 368 367 370 372 368 366 361 357 354 350 349 351 354 355 355 356 354 356 361 358 357 357 359 358 354 355 356 353 352 355 354
322 323 322 322 322 323 323 323 322 325 323 326 326 325 328 328 329 326 330 333 335 336 337 337 338 338 337 338 342 345 345 344 344 342 342 343 345 345 348 347 348 348 349 350 352 357 356 354 357 360 363 366 370 361 364 363 362 366 370 376 373 373 374 374 370 367 368 372 366 372 369 366 363 361 358 354 351 349 351 351 356 352 352 354 355 354 354 354 352 352 354 355 356 355 355 355 357
322 323 317 319 322 320 323 321 324 326 322 327 327 323 322 325 323 331 333 335 335 334 335 336 338 338 339 339 339 344 344 344 343 343 343 345 349 348 349 349 349 349 350 351 355 354 353 357 357 359 361 366 365 363 360 363 365 360 361 366 365 368 372 370 366 365 367 366 369 369 370 367 366 362 358 357 355 352 353 353 353 353 351 352 354 353 353 355 354 354 353 357 358 354 353 354 356
323 322 320 317 318 317 322 325 324 323 323 327 326 313 317 321 327 331 335 335 335 332 330 332 336 337 339 340 341 343 345 342 344 341 344 346 347 347 348 349 350 350 351 353 354 353 355 358 357 359 361 362 366 363 366 365 366 367 360 358 361 368 372 373 368 371 367 369 370 371 369 368 364 361 358 356 354 355 353 352 353 356 356 354 355 353 351 352 353 351 350 353 352 353 354 355 355
317 320 321 314 313 313 323 324 324 322 325 326 325 314 317 323 327 331 335 334 332 329 330 331 333 336 337 336 337 338 343 345 344 343 345 347 346 347 349 350 350 351 352 349 353 359 365 365 362 359 363 363 366 367 365 367 368 359 363 359 362 364 367 366 364 367 367 366 368 371 369 365 361 360 357 355 353 353 350 353 354 356 356 354 348 348 349 350 350 349 350 348 348 350 351 351 348
319 316 312 315 313 315 320 325 323 320 323 326 323 315 317 322 326 331 333 333 332 330 331 331 333 335 334 336 338 342 341 344 344 344 345 345 347 345 346 349 350 350 356 359 356 359 363 365 370 359 364 367 364 370 368 369 369 374 371 370 367 369 373 369 369 363 359 359 360 356 356 357 356 357 356 353 351 352 350 348 349 352 353 351 348 348 348 347 347 345 344 342 341 346 349 347 348
318 315 312 312 314 314 316 321 323 325 322 325 321 316 318 321 327 331 333 332 331 330 331 333 335 335 335 336 335 342 339 342 343 345 347 348 348 350 349 353 353 356 358 360 359 361 365 366 374 370 366 366 368 369 370 368 374 369 368 367 363 370 366 363 362 359 355 358 360 355 354 351 351 355 356 357 356 353 350 349 350 350 353 349 350 348 347 347 347 345 345 347 347 346 346 344 344
313 316 312 315 313 315 313 319 320 324 322 318 321 317 320 322 327 329 331 331 330 328 330 332 333 336 335 337 339 339 339 341 341 346 348 349 351 356 353 356 355 358 360 359 361 362 364 368 371 372 371 368 370 370 370 369 369 372 371 370 366 362 359 359 362 360 360 357 354 354 353 350 352 357 357 358 356 354 351 349 349 353 351 351 351 349 348 347 346 345 343 346 347 346 344 342 342
310 312 312 312 315 316 314 313 317 321 320 318 318 320 320 322 325 327 328 331 329 328 328 329 332 335 337 337 338 338 340 341 342 348 349 354 351 355 355 357 360 361 358 360 362 368 372 372 370 374 372 369 364 371 371 369 369 370 374 365 362 357 358 355 356 358 362 360 355 353 353 354 360 359 357 358 357 355 352 351 352 355 355 354 351 349 348 347 347 346 345 347 350 349 346 346 345
313 314 313 313 311 313 313 317 320 320 317 316 317 317 319 321 322 325 326 329 328 328 329 330 331 334 337 338 341 339 340 341 345 349 351 351 350 356 354 356 355 359 362 362 366 366 369 369 367 367 363 362 364 366 366 364 363 365 361 364 359 357 355 353 355 356 356 363 359 357 356 359 355 356 355 356 359 359 358 357 357 357 356 355 352 348 347 347 347 347 348 348 348 349 349 348 346
317 316 314 313 313 314 317 318 320 321 317 316 318 320 319 321 322 324 326 328 328 327 328 329 332 333 335 338 339 340 339 341 347 346 349 353 354 357 358 358 357 358 361 362 365 364 366 364 365 363 366 366 366 362 367 356 353 355 358 357 354 357 359 357 358 360 360 363 362 364 361 358 357 358 358 356 358 362 362 363 361 359 359 356 354 350 350 350 351 351 350 350 347 345 345 348 347
315 314 313 313 314 312 316 317 320 321 317 315 319 320 320 321 322 324 326 326 325 325 327 328 330 332 335 337 336 338 341 344 344 349 352 350 354 353 353 354 357 355 359 360 363 364 367 363 364 365 374 373 372 368 370 358 356 354 356 360 360 356 360 357 355 358 361 362 363 362 362 360 360 361 361 361 361 360 360 360 360 360 360 357 355 354 353 352 351 350 349 347 349 345 343 345 346
315 313 313 311 312 315 317 318 320 320 317 315 318 318 319 322 322 324 325 324 327 327 329 328 331 331 335 335 335 337 340 343 345 352 356 354 351 352 351 351 353 355 356 359 366 366 366 364 367 373 370 368 370 362 361 357 356 356 357 361 361 359 359 360 357 359 364 362 363 367 368 365 362 360 360 360 357 357 359 359 358 361 359 358 356 354 354 352 352 349 349 346 344 346 345 346 346
314 312 311 308 313 311 309 316 318 319 317 315 317 316 320 323 325 324 325 326 327 329 329 329 331 331 333 332 334 335 336 346 345 347 349 349 349 347 349 352 355 357 357 357 362 364 364 367 367 369 369 373 371 370 364 364 360 360 360 363 361 360 359 360 360 358 357 358 360 364 365 363 364 360 359 360 360 360 360 360 360 360 360 359 358 356 355 352 352 351 349 347 346 341 341 341 346
313 312 312 311 312 313 313 313 317 320 320 319 318 315 317 323 320 322 325 327 327 327 329 330 332 332 334 334 335 336 336 344 341 338 346 345 345 347 352 353 354 354 354 356 357 359 362 365 367 365 369 371 369 368 370 370 368 367 367 366 360 360 357 365 356 355 349 348 344 352 355 356 356 359 358 354 353 355 357 358 356 355 356 358 356 356 352 350 349 347 347 347 346 343 340 341 344
311 313 313 313 314 313 314 316 316 313 312 316 315 307 311 321 322 324 325 326 325 327 328 328 333 331 333 331 333 336 338 347 345 345 344 340 345 350 353 355 352 353 355 357 357 360 364 366 365 369 368 368 366 367 369 373 369 361 364 368 364 357 361 360 358 357 355 353 344 344 348 347 349 354 354 352 350 353 353 355 355 356 355 355 358 354 352 352 352 349 351 351 345 346 343 342 343
309 310 315 314 314 314 314 313 313 309 306 313 317 307 309 319 318 321 325 326 325 327 326 327 331 334 332 332 333 334 335 336 344 343 343 341 349 349 351 354 351 352 355 356 359 361 365 366 366 367 368 368 367 366 363 370 367 362 357 353 354 356 357 357 356 358 357 356 350 347 354 355 357 354 349 355 355 354 354 356 355 355 355 358 358 358 355 353 351 352 351 349 348 349 347 343 343
308 315 314 314 313 312 312 313 313 312 315 316 316 313 309 308 317 323 327 325 325 324 325 327 328 332 331 332 333 336 335 336 338 340 341 344 347 348 349 354 351 350 353 356 355 360 364 366 366 367 368 368 365 362 366 360 360 364 355 350 350 350 346 349 354 357 352 354 359 352 352 352 354 357 354 355 355 353 354 355 355 355 359 356 359 359 356 359 355 351 350 347 348 344 347 345 344
311 316 317 313 313 314 313 312 312 312 311 307 311 315 307 309 317 325 326 322 323 323 324 326 329 331 332 333 334 336 337 338 338 338 339 345 346 348 351 353 352 351 351 354 358 360 364 365 367 366 365 364 363 362 364 361 360 364 354 353 358 354 346 355 348 347 352 350 346 349 351 357 354 355 355 353 355 355 354 354 353 353 352 353 365 360 356 353 351 349 351 347 349 349 348 346 344
314 317 318 316 315 314 313 311 310 310 309 303 310 312 306 307 314 319 324 321 319 321 326 327 329 330 333 332 334 335 337 339 337 339 340 343 347 348 350 351 351 349 353 357 359 359 362 364 364 364 362 363 361 361 365 357 353 364 356 356 347 354 349 359 351 356 356 357 346 350 358 356 354 353 354 357 356 353 353 352 350 348 348 345 351 348 349 352 355 355 352 353 351 349 350 348 344
318 317 315 314 313 312 313 311 310 310 303 306 311 312 310 303 311 313 316 317 321 324 328 329 329 330 333 335 334 333 336 336 336 337 340 344 346 347 348 348 350 352 354 356 355 358 358 361 362 360 360 362 359 357 356 355 357 355 354 347 347 340 345 342 354 356 357 353 348 354 349 351 351 351 352 351 352 352 355 354 347 346 348 349 350 349 347 346 343 347 350 351 352 349 350 349 348
316 314 312 312 310 312 310 309 312 304 301 309 312 311 312 302 308 314 322 324 323 324 325 326 326 329 332 335 333 333 335 337 336 337 338 344 345 346 346 346 347 352 353 353 352 358 358 359 359 358 358 358 358 357 356 355 354 355 347 349 347 349 345 342 352 345 350 346 346 348 354 351 350 350 352 352 349 343 352 352 351 349 350 350 349 347 347 347 345 346 348 349 349 351 352 348 347
314 313 312 306 303 304 300 306 300 301 300 308 312 312 307 308 313 316 318 323 323 327 325 325 327 329 330 331 333 334 336 335 336 339 341 342 343 344 344 347 348 353 352 352 353 352 356 358 357 355 355 356 356 356 355 354 354 353 352 350 347 348 346 348 350 348 348 352 349 345 346 345 348 347 349 348 348 348 351 348 349 351 349 349 350 350 349 349 350 349 349 346 346 346 354 350 349
312 310 309 305 300 299 296 301 304 304 307 311 310 312 305 313 314 319 317 321 326 325 327 328 328 328 329 331 333 332 333 335 335 337 340 342 346 345 347 348 350 353 353 353 354 352 355 354 356 354 354 355 356 356 355 353 354 353 351 355 355 353 354 346 353 351 347 352 354 349 345 344 344 343 345 350 348 348 351 350 348 349 351 350 349 350 349 349 349 348 348 347 344 348 348 347 348
311 314 311 308 306 302 297 299 298 300 303 307 313 307 305 305 310 318 319 324 324 324 324 329 331 329 332 332 332 332 333 335 337 339 340 344 347 348 349 351 354 353 353 352 352 354 353 353 353 353 352 353 355 354 355 353 354 352 352 354 360 351 355 357 354 351 353 350 351 339 345 346 348 345 348 348 350 351 349 350 349 348 349 349 349 349 347 348 349 348 349 347 347 349 348 348 348
314 314 313 309 307 312 302 305 304 303 303 303 308 306 310 309 320 322 321 323 325 326 324 325 327 325 330 330 330 331 332 333 336 337 340 345 348 358 356 351 354 349 353 351 353 353 351 352 353 353 352 353 353 353 353 353 353 353 351 349 349 349 351 354 354 350 352 346 347 349 343 344 346 348 348 350 348 349 351 348 348 346 347 345 346 348 348 346 348 347 349 348 346 347 346 347 348
311 311 306 309 316 313 308 309 308 308 305 303 312 309 311 315 316 319 320 320 321 321 321 322 324 323 336 332 332 332 333 333 335 338 339 345 347 349 355 352 346 346 349 351 354 353 353 353 351 353 353 354 353 353 353 351 353 351 351 348 349 348 346 344 344 345 342 347 348 344 348 347 346 346 344 345 348 353 351 349 346 346 346 347 345 346 347 347 348 347 344 347 346 346 349 346 344
313 306 310 316 317 315 310 301 308 303 300 302 306 304 306 307 304 319 318 317 318 320 320 320 324 325 324 326 334 334 339 338 340 341 342 345 348 352 350 349 346 347 350 351 353 353 354 352 351 353 353 351 352 352 351 351 352 351 351 350 350 349 346 344 347 342 346 347 349 344 346 349 345 347 345 344 345 345 348 346 346 346 346 344 344 344 345 346 347 347 345 346 346 347 347 346 344
313 311 317 308 303 302 310 306 298 298 299 301 305 307 306 308 309 314 315 316 317 320 323 321 321 322 324 324 338 342 342 344 342 339 340 340 345 346 349 347 346 349 350 354 354 353 353 351 352 352 351 351 352 349 352 354 354 350 350 351 350 347 348 347 347 348 349 344 343 343 343 345 344 348 348 350 348 345 345 345 346 343 342 343 345 344 346 346 346 346 346 348 348 347 345 345 347
317 317 313 315 310 308 306 306 307 306 299 300 302 305 304 311 312 314 315 319 322 319 320 319 319 321 324 328 336 339 342 341 338 337 339 338 343 345 346 346 346 347 348 353 351 348 346 348 352 352 352 352 352 352 354 354 352 352 350 353 351 351 352 349 348 348 345 342 343 343 347 339 347 347 348 348 348 344 343 341 338 338 339 340 341 343 344 344 347 347 348 347 346 346 343 342 343
309 309 309 310 309 313 312 310 306 303 301 301 300 299 307 313 317 317 318 319 321 318 320 327 322 323 322 327 329 335 340 342 338 344 343 342 338 346 349 350 347 351 350 349 348 346 345 345 346 347 350 348 348 350 352 353 354 353 353 349 349 349 346 347 345 346 345 346 346 347 345 345 346 345 346 344 344 344 344 342 341 342 340 341 342 342 343 344 344 345 346 347 344 344 344 343 344
310 309 307 308 307 305 302 302 311 308 304 300 301 299 309 314 320 323 318 320 319 320 320 326 323 321 332 330 330 336 337 341 340 345 342 336 340 346 344 346 350 348 345 343 347 345 343 343 344 344 345 344 343 348 352 351 353 353 349 349 349 347 347 349 345 347 345 345 346 348 346 346 342 343 345 341 343 341 342 343 341 341 342 342 342 343 340 340 340 341 344 341 340 342 341 341 342
Wind_Speed
7 7 8 10 9 8 6 5 5 5 4 11 11 9 11 12 13 13 13 11 9 5 6 7 9 11 11 11 15 15 15 9 5 5 7 6 8 12 14 16 15 13 15 11 9 9 10 12 8 15 16 15 14 16 16 16 17 17 17 17 16 16 15 16 16 15 15 16 16 17 17 16 15 14 14 13 12 13 12 13 12 12 12 11 11 10 10 9 9 9 9 8 8 7 6 5 6
7 8 9 9 8 6 4 6 4 10 8 11 13 12 13 13 14 14 15 14 10 9 9 10 12 14 15 17 20 22 21 16 17 15 13 11 10 11 14 14 14 14 14 8 7 9 10 9 10 12 15 16 15 15 15 15 15 16 16 16 15 15 15 15 15 14 14 15 16 16 15 16 15 14 14 13 13 13 13 13 13 12 11 11 10 10 9 9 9 8 8 7 7 6 5 5 4
6 7 5 7 5 7 8 1 2 9 11 12 11 12 13 14 15 14 15 14 13 12 11 11 13 10 14 15 17 18 14 18 20 17 12 14 15 9 12 14 13 14 18 7 6 9 7 7 6 13 14 15 16 14 15 16 15 15 15 14 14 14 14 14 13 13 14 15 16 15 15 15 14 14 14 13 13 13 13 12 13 12 11 11 10 10 9 9 9 8 7 7 6 5 5 4 3
8 7 6 3 6 6 5 4 4 9 11 11 10 12 13 13 14 15 14 14 12 9 10 13 12 11 15 18 17 19 16 13 14 14 11 10 9 10 11 14 13 13 11 5 4 9 7 9 8 11 13 16 17 15 15 16 15 15 14 14 14 14 14 13 12 12 12 13 14 14 14 14 14 14 14 13 12 12 12 12 12 12 11 11 10 10 9 8 8 7 7 6 5 4 4 3 2
8 6 3 8 4 3 4 3 8 7 10 9 11 12 14 14 16 14 13 13 13 13 12 12 12 13 14 15 12 10 14 17 15 12 8 10 13 10 14 11 10 12 15 8 6 10 9 13 10 13 13 14 15 15 15 15 14 14 14 14 13 13 13 12 12 11 12 13 13 13 13 13 12 13 12 12 11 12 12 12 11 11 10 10 9 9 8 7 7 6 5 4 3 3 3 2 3
10 10 5 6 3 4 7 6 9 10 11 11 11 10 13 14 14 14 15 15 14 14 14 13 12 13 13 14 10 12 13 11 14 12 12 12 16 14 14 11 11 9 8 10 8 7 10 12 12 12 13 14 14 14 15 14 13 13 13 13 13 12 12 12 11 12 12 12 12 12 12 12 11 11 11 11 11 11 11 11 10 10 9 9 8 8 7 6 5 5 4 3 2 2 2 2 2
2 6 1 5 8 3 4 10 11 12 12 12 13 14 14 13 14 15 15 15 14 15 12 14 15 14 12 10 15 14 14 15 13 15 13 16 16 14 14 15 15 12 9 8 10 10 12 12 12 13 14 13 14 13 14 12 12 11 12 12 12 12 11 11 11 11 12 11 12 11 11 11 10 11 11 10 10 11 10 10 9 9 8 8 7 6 5 5 5 3 3 2 2 2 2 2 2
6 5 3 6 3 6 7 11 12 11 13 14 13 15 13 14 13 13 14 13 12 11 13 13 14 14 16 13 13 12 14 15 20 22 20 15 17 14 11 12 14 13 10 10 9 8 11 10 13 14 14 13 14 13 14 13 12 11 11 10 11 12 11 10 11 11 11 11 11 11 10 10 10 10 9 9 10 9 9 9 8 7 7 6 5 4 4 3 3 3 2 2 3 2 3 3 2
5 6 2 5 6 4 10 12 12 12 13 10 11 13 15 16 15 14 15 13 14 14 14 14 14 13 12 15 13 13 14 19 21 22 21 18 16 15 9 13 15 12 12 11 9 9 8 8 9 13 13 13 13 13 13 12 12 11 11 9 10 11 11 11 11 11 11 10 10 10 10 9 10 9 9 9 9 8 8 8 7 6 5 5 4 4 4 3 2 3 3 2 2 3 3 2 2
5 4 3 2 8 5 9 10 10 11 12 13 13 14 13 11 12 13 14 15 15 15 15 16 14 16 15 16 14 12 13 18 20 20 20 20 18 15 13 14 16 15 13 12 10 10 8 12 11 12 13 12 12 12 11 11 12 11 10 10 10 10 10 10 10 10 10 10 10 10 10 9 9 9 9 8 7 7 7 6 5 5 4 3 3 3 3 4 6 5 5 5 5 5 4 3 1
5 1 6 3 4 6 8 9 11 11 12 12 14 13 12 14 14 13 13 14 14 15 16 16 15 16 13 13 11 13 16 17 17 19 21 20 17 17 15 14 15 16 14 15 12 10 9 10 15 13 12 12 13 12 11 10 10 10 9 9 10 11 10 10 10 9 9 9 9 9 8 8 8 8 8 7 6 6 5 4 3 3 2 2 2 1 2 3 4 4 4 5 5 5 4 4 3
4 5 4 1 10 8 2 7 11 11 12 11 12 12 9 13 13 14 14 15 14 15 14 10 11 14 14 12 10 12 15 15 16 16 18 19 16 16 14 12 13 14 16 15 14 12 11 10 10 14 15 14 13 13 12 12 12 10 10 10 10 10 10 10 10 9 9 8 8 7 8 7 7 6 6 6 5 4 4 2 1 0 0 1 1 1 3 1 2 2 3 4 5 6 6 5 4
1 2 5 2 7 4 5 10 7 10 7 11 12 10 10 13 14 13 12 12 12 13 13 14 14 11 13 11 9 13 14 15 14 14 16 15 12 14 15 14 14 14 13 13 12 11 12 10 9 9 11 14 13 13 12 10 10 10 9 10 10 9 9 9 8 7 7 7 7 7 7 6 6 5 5 4 3 2 2 0 1 2 3 3 3 4 5 4 3 4 5 6 6 7 8 8 6
5 2 4 5 5 5 7 4 10 4 8 9 8 11 11 11 10 10 11 13 14 13 11 12 12 13 14 11 10 10 11 14 15 14 12 17 13 11 13 13 15 16 15 13 11 10 9 10 10 9 9 7 6 7 9 7 9 8 9 9 9 9 8 8 8 6 6 8 7 7 7 6 6 5 4 3 2 1 1 1 3 4 4 4 5 6 6 5 4 5 6 7 8 10 10 9 8
7 5 7 5 10 8 6 1 10 6 10 9 8 10 11 10 12 9 11 14 14 12 12 11 12 10 10 11 10 10 12 14 14 13 12 16 16 13 13 12 13 12 10 12 14 12 9 10 10 9 8 6 6 4 3 4 8 8 10 9 8 9 9 9 8 7 7 7 7 7 7 7 6 5 4 3 3 3 4 4 4 4 4 4 5 6 7 6 6 6 7 7 8 9 10 11 10
7 4 6 3 6 7 10 10 8 4 8 9 10 12 12 11 9 9 11 11 10 10 12 10 6 8 13 11 12 15 14 14 12 12 13 13 11 10 12 10 11 11 9 9 10 11 10 9 8 8 7 6 4 6 4 4 6 7 9 11 11 11 11 9 7 7 6 6 6 7 7 5 5 4 5 5 6 6 7 7 5 6 6 6 6 7 7 7 7 8 12 15 17 15 14 12 12
5 6 7 7 3 5 6 8 14 4 10 11 10 10 11 11 9 11 12 11 12 8 8 7 6 13 12 13 15 16 15 14 11 12 12 11 9 8 9 8 9 10 8 8 9 9 10 9 9 8 6 6 5 6 4 5 7 10 8 10 10 11 11 10 9 7 6 6 6 6 5 5 3 1 1 6 10 8 8 11 6 6 6 6 7 7 8 8 10 15 10 8 9 12 14 19 20
4 5 8 5 4 6 4 6 9 10 11 11 9 9 9 11 10 10 11 10 8 8 8 9 10 12 13 18 18 15 15 15 15 14 10 11 8 9 8 7 7 8 8 6 5 7 7 4 5 8 9 9 7 6 5 5 5 7 4 6 5 6 9 8 7 6 7 5 8 5 4 5 3 2 7 4 4 5 6 9 9 6 5 4 6 9 10 12 10 1 4 5 8 9 12 7 7
7 5 7 4 10 7 5 11 11 10 11 8 11 10 9 11 12 10 8 8 9 10 8 10 13 17 20 19 18 17 13 15 14 15 14 11 8 9 8 8 7 7 7 7 7 9 8 7 6 2 5 8 8 8 5 4 5 3 2 3 5 7 7 9 7 8 6 5 7 6 6 3 4 5 4 3 2 5 7 14 13 10 8 6 7 9 9 11 6 2 4 4 4 3 2 1 3
9 5 2 8 9 12 9 9 9 10 11 12 10 11 10 10 9 7 9 11 8 10 10 14 15 18 18 18 17 17 16 13 11 10 12 11 9 10 9 9 8 7 8 7 7 6 7 5 9 9 10 9 8 7 7 6 6 5 4 6 6 5 3 4 5 4 4 4 4 3 2 3 4 6 7 7 5 1 2 8 5 9 11 8 4 3 6 8 6 8 6 6 3 1 2 2 2
7 4 6 9 9 8 8 10 9 10 9 11 11 10 15 13 11 7 8 11 9 9 11 12 16 19 19 19 18 16 16 16 15 14 11 9 11 10 8 7 8 7 7 7 7 7 8 4 4 4 4 5 7 6 8 4 7 7 6 3 3 3 4 2 2 3 4 4 3 3 3 2 5 5 4 3 1 2 4 5 7 4 3 4 1 3 2 2 2 2 3 2 1 1 2 1 3
6 9 10 8 6 8 8 10 9 11 10 8 8 15 15 9 6 7 7 5 1 6 11 13 17 18 19 19 17 15 16 15 14 11 11 11 8 8 8 7 7 6 6 6 7 8 10 9 7 7 7 6 6 4 4 4 4 3 2 2 2 3 4 4 4 4 4 3 3 4 3 4 6 6 5 3 4 2 1 3 3 3 6 4 2 2 1 1 1 1 1 2 2 1 2 1 2
5 3 9 7 10 11 8 11 8 7 10 9 9 11 13 10 10 6 10 7 5 6 10 16 15 17 18 17 16 16 15 15 13 12 10 11 10 9 9 8 7 6 6 5 7 5 6 7 6 6 6 4 6 7 4 4 2 1 1 1 1 1 1 1 1 2 1 4 4 2 2 1 6 6 5 4 3 2 3 4 4 5 9 2 1 3 4 4 3 3 3 2 1 1 3 3 4
4 12 5 6 6 8 8 11 11 10 9 10 9 9 13 14 11 5 4 6 9 12 11 15 17 16 17 17 15 16 15 15 13 13 12 9 10 9 11 8 7 7 5 4 5 6 6 8 6 6 4 4 3 4 6 4 2 1 1 3 4 5 5 4 3 1 2 1 4 4 5 3 5 7 6 5 4 4 6 7 9 9 5 4 4 5 3 3 3 3 3 3 3 3 4 5 4
7 6 2 8 8 7 10 9 11 10 11 12 12 11 11 12 11 8 10 9 11 13 13 14 15 16 15 15 15 15 13 14 15 13 11 9 10 7 8 8 6 6 7 7 5 5 6 3 6 6 6 5 3 3 5 5 3 2 1 1 3 5 3 3 6 3 1 3 2 5 4 5 5 4 5 6 5 5 5 6 5 4 3 3 4 4 4 4 4 4 4 4 3 3 3 4 4
1 11 7 5 8 10 11 11 10 12 8 9 12 14 13 14 14 13 10 10 11 12 13 13 15 14 14 14 14 14 12 11 11 11 10 9 10 9 9 8 7 7 6 6 5 5 4 7 6 6 5 5 3 3 1 2 6 3 3 3 1 2 1 3 9 7 6 4 4 3 4 5 5 5 5 4 5 5 4 4 3 2 2 3 3 4 4 4 3 3 3 3 4 3 3 3 3
7 9 6 8 7 9 8 12 12 10 13 12 13 14 13 12 9 11 12 12 8 12 13 12 12 13 13 11 12 12 13 13 14 10 11 8 8 9 8 7 7 7 6 6 7 5 5 2 6 6 5 4 3 3 1 4 2 1 3 4 7 10 13 15 11 6 0 3 2 4 4 5 5 5 5 6 5 4 4 4 3 2 2 3 2 1 1 1 1 2 3 3 2 3 3 4 4
8 7 8 8 8 7 10 13 10 10 13 12 13 14 13 11 10 10 13 14 14 11 12 12 12 11 12 13 12 10 8 8 11 10 11 11 6 9 8 7 9 8 8 8 5 4 4 6 6 7 5 4 3 3 4 3 4 4 1 0 2 1 2 2 2 2 2 2 3 3 5 4 4 4 4 4 5 4 3 3 2 2 2 2 2 2 3 3 2 4 5 5 3 3 4 4 3
10 7 9 10 9 10 11 9 10 10 11 14 13 13 12 10 11 13 13 13 14 13 12 9 11 9 9 11 10 8 7 11 10 10 10 10 8 7 9 9 8 7 6 7 5 6 6 5 5 5 6 5 4 4 4 4 6 4 3 1 2 2 3 1 1 2 3 3 4 4 5 6 4 4 4 3 3 3 3 3 3 3 3 2 2 3 3 2 3 3 5 4 3 4 4 4 3
8 8 7 8 8 6 9 9 8 8 10 12 13 8 8 11 13 12 14 14 13 12 13 12 10 10 10 10 10 12 10 10 10 9 9 9 10 10 11 11 9 7 6 5 6 6 6 5 5 5 5 6 5 5 4 4 3 4 6 2 3 3 2 1 2 1 1 3 2 4 4 4 4 3 3 3 2 1 1 1 2 2 1 2 3 3 4 3 3 4 5 4 6 5 4 3 3
7 10 6 7 7 7 9 9 9 9 7 11 9 2 8 11 11 12 14 14 13 11 12 12 12 11 11 10 11 10 11 8 9 10 10 10 10 9 11 10 10 9 6 7 7 7 6 2 5 4 4 4 6 5 4 3 3 4 6 8 6 3 2 1 2 2 2 4 3 2 3 2 2 2 3 3 2 1 1 1 2 2 1 2 3 2 3 4 4 4 4 5 6 6 5 4 4
8 6 9 8 7 8 9 9 9 9 6 6 0 9 8 11 11 13 12 13 12 11 11 11 12 11 11 10 10 10 10 10 10 10 10 11 9 9 10 9 10 9 6 5 6 5 8 5 2 4 6 6 5 3 3 2 2 3 1 3 3 1 1 1 2 2 3 3 4 1 2 2 1 2 2 2 2 2 1 1 1 3 4 2 2 2 3 5 4 4 4 4 6 6 4 5 4
8 8 7 7 5 8 9 9 9 10 9 8 4 4 10 11 12 13 12 13 13 11 11 10 11 12 11 10 10 10 11 10 9 9 10 8 8 6 8 7 7 7 6 5 5 5 8 6 5 5 7 6 5 3 2 2 2 3 2 2 3 1 3 2 2 1 3 3 1 2 2 2 1 1 1 2 2 2 3 2 1 2 3 2 5 6 5 5 5 5 4 4 5 5 5 6 5
9 10 7 6 9 8 7 10 8 11 6 8 11 6 9 11 13 13 13 14 13 12 12 12 11 8 9 9 9 10 10 10 10 11 11 10 8 6 7 6 7 7 6 6 5 4 4 7 6 5 4 4 5 4 4 3 3 3 3 2 4 3 3 2 3 2 2 2 2 3 3 2 3 4 4 4 4 4 3 2 1 4 4 7 6 4 4 6 5 5 6 5 4 4 5 6 6
10 10 9 10 11 8 7 8 9 6 8 3 10 5 12 12 13 13 13 15 13 13 12 12 12 11 11 10 10 12 11 11 11 10 12 9 10 8 8 8 6 8 7 8 7 5 4 5 5 5 4 4 5 6 6 4 4 3 2 5 5 3 2 2 2 2 5 4 5 3 3 5 4 1 1 2 4 4 4 5 6 7 6 5 5 5 5 5 6 5 6 5 4 4 5 6 6
12 15 12 10 11 12 10 7 8 10 10 7 8 8 11 12 13 12 12 13 13 12 12 12 12 13 11 11 10 10 11 12 10 10 11 10 7 7 8 7 8 7 7 8 6 7 6 5 3 5 8 7 8 8 7 4 3 3 2 4 4 3 4 3 3 2 3 4 3 5 4 3 2 2 2 2 4 5 6 5 5 5 6 5 5 6 6 4 6 6 5 5 6 5 5 6 6
13 15 12 15 14 14 15 14 11 12 10 11 8 11 12 13 13 13 13 12 12 12 14 12 12 12 12 12 12 12 12 13 13 12 11 11 11 7 7 7 7 9 7 8 8 7 8 7 9 8 6 6 5 5 4 6 2 2 2 3 5 2 3 4 4 3 4 3 3 1 3 3 4 4 4 4 4 5 4 4 3 5 6 6 5 6 7 7 6 5 5 4 5 5 5 5 6
15 11 11 12 12 10 12 14 14 13 10 8 11 12 12 12 12 13 12 12 13 13 14 13 14 14 12 13 13 13 12 10 13 11 9 11 11 10 9 7 8 10 7 8 7 7 7 8 7 4 4 4 3 8 5 8 2 4 3 3 3 5 6 5 5 6 5 5 6 4 4 4 4 3 3 3 4 5 4 4 5 5 4 5 6 6 6 6 5 5 5 5 4 6 6 5 5
14 10 7 9 11 8 13 11 15 14 11 8 10 12 11 12 11 12 13 12 10 12 12 13 14 14 12 13 14 14 13 12 16 13 14 11 12 13 10 9 9 9 10 9 7 6 7 8 5 6 3 6 3 7 5 5 2 4 5 5 5 5 4 5 5 6 7 5 6 5 5 4 3 4 5 4 3 3 4 4 5 4 5 5 5 5 5 4 4 6 6 6 6 5 6 5 6
7 10 8 9 7 9 9 12 14 10 8 4 12 10 5 7 9 11 12 12 10 10 13 14 14 13 14 14 14 13 13 16 15 14 15 15 15 14 10 9 9 10 7 8 10 9 8 5 5 7 5 5 5 7 6 8 10 8 5 4 6 6 7 8 10 8 9 9 7 6 6 2 2 3 3 4 4 4 5 4 4 4 5 4 5 5 4 5 5 5 6 6 5 7 6 5 4
9 13 11 8 10 13 10 13 14 10 11 6 11 5 4 5 7 10 10 12 13 12 12 13 13 13 14 13 14 13 13 15 15 14 15 14 11 13 11 9 10 10 8 9 8 8 6 6 6 8 7 6 5 5 7 8 7 8 8 4 1 3 2 1 3 4 4 4 2 1 5 2 2 2 3 6 5 4 4 4 5 6 5 5 4 3 3 5 6 7 7 5 5 6 6 5 5
10 15 16 13 13 11 18 19 16 9 7 10 14 6 8 7 5 5 7 11 12 13 12 12 11 13 13 14 13 13 13 15 14 15 15 16 15 13 12 12 11 10 9 9 8 8 7 7 7 5 7 7 6 4 3 3 3 3 3 1 2 2 1 2 2 2 3 4 4 6 5 4 4 3 3 4 4 5 5 5 5 5 6 6 4 4 4 5 6 6 4 3 6 6 5 4 5
9 12 16 20 15 8 9 15 13 9 8 11 12 12 6 9 11 9 7 10 11 11 14 14 11 11 14 12 13 14 14 15 16 16 14 15 15 12 13 12 11 11 9 9 8 8 7 8 8 5 6 4 4 4 4 2 2 3 2 1 3 2 1 3 2 1 3 3 4 5 3 2 2 1 4 3 2 3 4 4 5 5 5 5 4 3 4 6 5 3 4 3 6 4 4 5 5
11 11 18 14 15 13 12 8 9 5 8 10 13 11 5 8 12 13 11 10 12 14 13 13 14 13 14 14 15 12 14 15 13 14 15 14 15 14 14 12 10 12 10 10 9 8 9 8 7 6 5 4 5 4 3 5 3 3 3 3 4 3 3 3 2 2 3 2 1 2 3 4 3 2 2 3 3 3 3 4 4 4 4 5 4 3 4 2 2 3 3 4 2 4 6 4 4
11 2 6 16 17 19 5 7 9 11 7 9 7 9 9 7 11 15 16 14 9 14 15 13 12 15 14 15 15 15 15 14 14 13 15 16 14 15 13 12 11 12 10 10 7 8 8 7 7 6 6 6 4 4 4 4 4 3 3 3 3 2 4 1 2 3 3 3 1 3 3 2 2 2 2 3 2 2 3 3 4 5 5 4 1 3 3 1 2 6 3 4 4 5 4 4 4
13 4 9 11 16 9 7 8 7 7 5 9 7 9 6 7 8 13 15 16 17 20 18 17 15 15 15 14 14 16 13 12 15 14 13 13 14 15 14 13 12 11 9 10 8 9 7 7 6 7 7 5 5 5 4 4 3 2 4 3 2 4 5 2 1 1 3 3 2 3 0 1 1 2 2 2 2 3 3 3 4 6 5 6 5 5 4 3 3 2 3 5 4 4 4 4 5
12 13 16 13 10 4 6 9 8 7 8 8 13 12 11 9 8 12 16 16 18 14 11 12 14 15 15 15 16 15 14 13 14 14 14 13 14 14 14 14 11 9 10 10 9 9 8 8 8 8 7 5 5 5 4 4 3 4 2 2 3 1 3 1 1 2 3 4 3 0 2 1 2 2 4 3 2 3 2 2 4 5 5 5 5 5 5 5 5 4 2 2 4 5 4 3 4
9 4 11 2 7 6 7 8 7 9 8 9 13 13 11 11 7 11 19 20 17 16 16 17 17 16 15 14 16 15 14 14 15 14 15 14 14 13 14 15 13 10 11 11 10 9 9 8 9 8 7 7 5 5 5 4 5 2 2 3 2 4 1 1 0 2 0 1 1 2 1 2 3 2 3 3 3 3 2 2 3 4 4 4 5 5 5 5 5 4 4 4 4 3 2 2 3
12 13 12 9 8 7 8 6 8 10 9 8 11 13 11 12 9 10 11 23 21 18 16 17 17 18 18 19 18 14 11 17 16 13 13 14 14 15 14 12 13 11 11 13 10 12 9 10 10 10 8 8 6 6 5 6 3 4 4 3 3 4 1 3 1 1 2 1 2 2 2 2 2 2 3 2 3 3 3 2 2 3 3 3 3 3 4 4 3 4 4 5 5 4 1 1 1
13 11 8 13 10 8 6 7 7 8 11 13 12 10 10 3 8 12 9 22 23 21 19 20 20 20 18 17 17 17 16 16 15 14 15 14 13 14 13 13 12 11 13 12 11 10 10 11 10 10 9 8 7 6 6 5 4 6 5 3 3 3 1 3 1 1 2 3 2 2 1 3 2 3 2 3 3 3 2 2 3 3 2 3 3 3 4 4 3 3 3 4 5 4 3 3 2
9 10 10 9 8 6 9 7 8 9 7 9 16 8 5 5 4 3 6 18 17 15 14 13 16 19 14 16 16 19 19 14 15 14 15 15 14 14 12 11 9 11 11 11 10 11 12 11 10 10 10 8 8 7 5 6 6 5 4 4 3 4 3 1 3 3 2 1 2 2 2 2 2 3 3 2 3 2 3 2 3 3 3 3 3 3 4 3 3 3 3 4 4 3 3 3 3
12 12 11 13 10 6 10 7 7 7 7 4 3 6 6 5 3 4 11 16 15 16 13 9 7 6 15 12 14 16 16 14 16 16 16 17 17 12 10 9 8 7 5 9 9 12 12 12 11 11 11 10 9 7 6 6 7 6 5 5 5 4 4 2 3 3 2 4 2 1 2 2 3 3 3 2 3 3 2 2 3 3 3 4 4 4 4 4 3 4 3 3 4 2 2 2 1
12 12 14 12 9 14 10 8 10 10 7 9 3 7 8 1 10 12 12 10 8 5 7 9 8 8 6 10 12 14 14 13 14 16 15 16 15 13 10 10 11 13 12 10 10 12 12 12 12 12 11 10 8 8 6 6 6 5 6 6 4 4 6 6 5 6 4 2 2 3 3 2 2 2 4 4 3 2 2 2 3 3 3 3 5 4 4 4 3 4 4 3 3 2 2 2 3
9 13 12 11 14 10 8 9 4 7 9 7 10 9 5 8 5 9 10 11 12 9 8 9 9 9 7 8 11 12 8 11 12 14 14 15 15 14 12 12 15 15 15 9 13 13 11 12 12 12 12 11 9 8 7 6 6 6 6 6 6 5 4 4 2 2 3 2 3 5 4 4 3 2 2 3 3 3 3 4 3 4 3 4 5 6 5 4 4 4 3 3 3 2 2 2 3
11 9 10 11 11 13 7 7 4 7 6 7 7 7 8 6 1 10 13 11 13 12 8 4 7 11 8 8 7 11 10 4 6 12 13 13 14 16 15 15 17 15 15 8 13 12 11 10 10 12 11 11 10 8 7 6 5 5 4 5 6 5 4 3 3 3 3 3 2 2 3 3 2 2 3 2 3 3 3 4 3 4 5 5 4 5 5 4 4 4 3 2 1 1 3 3 3
17 10 10 12 11 7 6 9 8 5 7 6 8 9 5 1 4 8 15 8 5 9 9 7 3 4 11 7 10 13 11 12 10 10 14 16 14 17 19 21 21 17 16 11 15 15 16 12 11 10 10 9 9 8 7 6 5 4 5 4 4 3 3 4 3 3 3 4 5 2 2 4 3 2 2 2 2 3 4 4 5 6 5 5 5 4 4 4 3 3 2 2 3 3 3 3 3
14 13 10 6 8 9 10 9 9 8 8 6 5 6 2 2 2 11 9 6 6 4 4 6 3 5 6 13 8 11 13 11 12 9 11 11 12 11 8 11 15 14 13 13 16 16 15 13 13 13 11 11 10 8 7 6 5 4 4 5 4 4 4 3 4 4 4 3 3 3 2 3 3 4 3 3 4 4 5 5 5 5 6 6 5 6 5 4 4 4 3 4 4 3 2 3 2
14 13 11 11 11 11 8 8 9 9 5 4 6 7 5 7 6 8 10 6 7 5 1 3 7 9 3 5 8 9 7 9 15 13 16 16 12 13 13 14 11 13 15 17 15 13 14 13 14 14 14 13 13 9 7 7 4 6 5 5 4 5 4 4 4 4 4 4 3 3 4 4 4 5 4 4 5 5 4 5 5 5 6 6 6 6 7 6 6 4 3 3 5 3 4 3 3
Wind_Direction
228 213 212 211 231 244 261 191 279 205 206 68 78 79 83 81 85 101 101 115 85 75 93 75 73 76 84 102 97 69 43 56 25 98 108 123 162 164 134 135 140 136 115 116 109 113 115 124 132 125 125 116 109 114 113 109 105 102 102 102 101 101 102 104 105 108 107 106 106 104 104 105 105 106 108 106 102 104 102 99 96 91 88 88 87 88 87 86 83 80 75 75 79 81 74 71 74
225 229 223 216 219 282 245 151 266 88 86 73 62 67 75 81 80 71 76 69 89 130 115 99 91 92 100 92 78 73 62 64 80 90 101 124 152 134 140 138 137 126 109 75 115 117 117 125 121 109 114 119 119 114 110 107 104 102 102 106 107 106 104 105 106 106 102 100 99 102 105 105 105 108 109 108 110 102 99 96 95 94 92 92 94 93 93 92 89 84 82 86 86 85 84 72 60
288 287 244 232 239 227 275 226 270 87 81 78 74 78 93 89 86 84 86 91 87 89 93 85 85 79 87 76 78 78 85 82 90 99 111 130 130 141 143 137 132 124 104 144 126 108 106 104 106 121 127 119 116 114 114 109 106 105 105 106 106 105 101 98 99 101 101 102 102 103 100 100 104 104 101 102 101 99 98 98 97 98 98 100 98 97 95 94 94 95 98 97 98 95 87 79 60
289 284 289 275 273 224 242 216 65 78 84 83 91 80 82 89 100 110 111 105 103 114 107 96 92 94 85 81 89 93 95 91 97 111 118 136 120 135 148 114 119 101 79 110 94 104 114 138 146 128 129 122 121 120 114 109 106 104 106 105 105 103 102 102 102 99 101 100 98 97 96 97 97 98 102 104 102 98 95 95 95 97 99 99 99 99 98 99 99 97 99 103 98 104 114 106 99
266 263 269 284 277 237 259 147 105 91 86 87 88 80 80 85 85 84 87 91 94 91 87 83 80 65 63 76 84 85 97 105 104 103 109 116 125 123 114 111 104 100 115 129 125 117 119 134 140 128 122 121 119 114 111 109 107 107 110 111 109 111 113 114 111 106 99 97 96 94 93 96 99 101 102 104 102 101 99 96 98 99 99 98 97 98 100 101 101 100 94 86 83 85 101 119 126
249 242 164 230 252 335 273 110 93 87 88 97 103 111 94 83 79 83 90 88 88 88 89 92 89 93 81 74 94 100 116 109 114 108 127 128 129 125 105 97 87 85 92 116 108 111 119 120 121 124 120 119 111 112 111 110 113 118 118 120 121 119 120 118 113 106 103 100 101 99 99 100 101 102 102 102 103 102 102 100 100 100 99 97 96 94 95 91 87 92 87 71 73 59 90 113 91
261 292 184 214 237 231 112 87 86 93 89 95 89 94 99 102 105 97 88 87 84 87 87 96 102 105 87 84 80 80 92 119 123 127 127 134 128 125 124 119 115 112 102 104 101 108 116 125 121 122 120 115 112 107 109 114 115 113 117 120 122 120 115 112 110 106 106 106 104 105 108 109 109 107 104 104 105 107 107 107 107 103 101 98 97 91 83 77 69 67 78 75 48 3 15 32 19
252 295 276 316 331 200 98 82 76 74 86 90 100 98 107 111 114 120 118 118 120 116 114 100 84 86 89 89 87 83 92 90 107 116 124 131 127 116 119 115 105 114 117 105 105 111 114 112 129 127 123 120 118 124 125 126 122 122 121 125 125 124 119 116 112 111 107 107 105 108 112 112 110 109 111 108 107 108 105 104 99 97 92 91 90 94 87 84 80 53 60 31 15 6 355 13 11
321 299 347 298 316 76 88 84 84 81 90 87 76 68 78 78 74 83 91 96 97 94 97 105 110 101 106 101 87 99 99 105 110 123 129 130 124 132 135 125 120 124 118 113 113 115 125 135 131 131 124 124 123 123 126 124 124 126 128 129 129 127 123 118 115 114 112 110 113 114 111 111 110 111 113 110 106 104 107 102 100 96 90 84 82 67 61 51 26 26 22 8 359 4 17 356 11
334 262 334 349 273 115 107 108 106 105 103 99 109 111 102 108 106 89 88 75 74 89 90 95 100 100 108 100 113 116 108 115 124 127 130 131 134 130 127 122 123 121 122 123 126 132 141 149 142 132 128 127 125 127 128 129 128 131 137 138 131 123 123 121 117 118 120 119 121 122 124 125 124 121 116 117 114 109 103 106 108 110 112 102 83 66 41 38 29 15 11 9 8 8 5 349 342
313 19 307 308 37 56 66 86 107 115 105 100 89 91 102 97 92 89 90 95 93 93 101 109 109 110 110 96 91 106 121 126 128 130 132 136 134 134 134 128 126 130 131 131 136 136 145 146 143 134 132 136 139 138 135 140 138 137 135 138 134 128 128 125 125 126 126 131 130 132 132 127 124 122 119 117 115 110 106 108 115 134 131 135 110 63 53 31 13 4 3 358 346 336 331 322 311
295 18 315 100 81 58 336 107 101 110 104 109 104 93 77 97 110 103 99 107 116 121 123 130 102 109 101 110 118 129 131 133 128 129 127 129 135 130 123 123 123 126 130 133 135 138 138 140 138 138 138 140 137 141 142 150 149 152 149 143 130 129 131 132 134 140 139 140 141 133 132 127 122 121 119 118 119 125 126 126 140 243 169 72 346 328 335 350 326 329 315 310 317 306 302 303 298
58 291 286 228 70 149 161 97 89 61 94 91 102 115 120 105 96 110 107 112 125 113 95 98 125 119 116 113 117 131 147 131 126 128 127 124 129 128 133 135 134 129 134 136 132 135 141 142 140 142 140 141 143 143 145 146 147 158 134 132 130 132 131 132 139 144 143 146 144 146 135 133 136 136 140 134 136 142 149 88 279 284 304 311 319 313 321 321 314 309 305 301 305 305 297 294 293
227 214 225 104 178 59 57 104 70 104 105 114 98 102 104 100 91 109 136 121 103 97 112 131 117 106 99 117 133 151 138 137 133 133 146 124 119 121 127 130 138 137 140 137 137 141 144 145 145 141 140 139 140 144 137 133 141 126 121 122 131 145 140 140 144 156 161 156 152 137 132 123 123 135 132 128 103 162 329 301 306 311 320 321 319 317 315 309 304 300 294 303 301 299 301 298 293
234 231 222 191 143 131 122 46 133 202 97 96 123 110 102 115 135 125 100 99 93 119 126 108 110 131 137 146 143 147 140 139 143 146 131 116 126 137 133 126 123 122 129 140 145 146 154 150 146 144 147 152 144 127 122 124 126 135 142 146 153 154 150 154 155 168 170 160 149 146 146 150 151 148 146 154 178 205 232 248 251 267 279 288 287 292 289 290 282 282 283 284 293 291 294 295 295
276 237 254 127 124 161 152 170 90 72 109 122 106 99 100 98 108 117 100 105 114 138 140 118 180 119 150 140 145 134 135 141 144 136 111 116 120 124 109 129 128 127 141 149 143 148 148 152 146 148 143 139 153 140 149 157 161 169 165 160 163 154 150 153 162 165 176 165 159 160 165 168 167 179 188 205 212 217 224 238 222 236 251 257 270 273 276 280 291 309 334 336 329 317 302 299 296
217 243 254 172 92 136 136 136 115 207 116 110 124 129 113 100 84 84 101 122 137 146 119 136 136 125 150 134 129 132 138 125 130 124 133 121 133 129 128 140 125 137 139 150 146 148 149 156 162 144 147 167 155 141 153 166 171 178 162 171 161 156 151 154 160 168 168 180 173 176 177 197 177 173 177 2 345 322 294 231 217 220 235 257 268 279 293 311 353 16 346 328 321 317 327 330 325
240 242 268 26 76 92 95 102 126 133 129 128 126 110 120 126 127 122 138 109 97 153 124 131 123 137 129 122 133 135 133 139 142 137 146 138 140 135 140 130 140 128 131 139 137 138 108 90 174 160 157 168 156 134 158 177 168 157 183 139 137 149 148 158 160 167 184 184 197 184 197 217 155 144 83 96 171 238 285 291 242 221 226 277 304 324 336 351 40 294 285 309 310 320 1 349 308
247 256 260 63 111 83 66 119 118 143 113 127 118 115 118 108 132 150 135 117 127 112 116 126 117 106 111 124 131 135 148 147 145 146 152 151 143 142 135 142 145 138 135 149 156 151 143 166 163 158 161 150 148 142 142 170 158 160 119 179 162 166 178 176 181 185 185 187 192 197 206 180 168 122 123 125 17 16 334 350 7 330 328 341 337 346 357 32 54 338 352 332 312 329 82 203 24
190 193 286 83 49 80 97 86 105 103 127 121 132 122 119 136 124 179 116 129 139 122 112 110 115 123 129 131 139 141 151 148 136 148 144 144 165 137 151 147 144 142 144 152 145 137 144 134 137 164 173 162 151 148 164 169 165 143 185 200 183 159 194 200 183 186 166 189 196 203 233 169 115 97 85 68 56 90 1 19 2 328 328 327 350 7 29 48 42 348 349 339 1 133 151 122 128
320 323 174 113 109 107 97 123 120 117 121 121 112 110 69 36 29 26 110 136 136 132 141 139 135 137 136 143 140 153 151 153 155 151 151 146 160 155 137 143 144 150 153 151 141 151 134 157 123 124 160 153 144 137 159 173 158 164 179 195 146 144 164 206 186 194 180 190 197 197 218 160 121 104 115 125 108 29 22 35 46 29 310 276 14 60 47 17 60 300 328 334 225 210 237 181 130
243 5 61 65 73 87 107 107 115 101 91 97 116 103 116 130 73 116 111 89 57 125 151 147 141 141 144 144 146 150 154 155 153 154 143 160 153 133 147 143 137 149 152 155 156 161 149 165 161 156 164 156 150 135 142 130 142 165 133 168 197 142 186 182 191 166 184 182 192 213 234 200 125 116 116 107 85 83 168 127 90 14 300 248 184 147 144 147 192 224 244 289 308 215 137 339 255
84 195 44 36 88 102 100 94 97 123 122 111 97 85 106 117 94 74 86 92 186 192 128 136 139 139 143 144 149 153 151 146 155 158 150 166 158 165 154 152 160 167 162 164 157 167 156 156 150 157 152 160 151 148 142 133 149 76 134 197 185 113 141 259 249 163 187 185 193 171 195 190 112 100 95 89 94 106 73 47 43 269 241 195 165 175 174 173 189 192 200 193 241 270 129 169 251
284 84 181 107 150 117 129 121 135 111 93 77 87 105 103 113 109 72 124 152 145 116 133 128 130 140 145 150 155 150 145 154 156 164 162 166 164 175 156 152 174 169 168 155 173 167 164 167 154 151 124 153 169 156 140 133 128 108 29 30 20 31 11 355 291 212 211 205 206 173 205 113 105 125 133 136 149 164 161 179 188 216 205 190 180 205 159 172 180 201 212 197 193 190 177 175 220
129 134 39 107 102 119 113 128 101 92 102 103 90 89 93 95 103 119 82 86 97 108 116 127 135 141 149 151 154 143 152 154 163 158 170 163 166 167 157 138 187 159 178 172 177 179 171 148 160 154 153 168 177 194 164 133 111 123 154 98 40 33 9 343 299 284 197 199 208 234 148 110 121 131 147 152 167 180 179 197 192 184 208 196 197 179 171 182 198 198 196 205 192 195 180 175 197
308 74 121 178 132 147 138 125 124 115 96 96 99 94 97 99 106 107 109 89 114 120 123 130 137 144 149 156 148 142 149 171 147 155 169 156 172 171 172 165 175 181 165 180 163 177 181 161 184 178 175 157 170 213 112 112 151 181 139 112 119 50 345 301 264 260 205 202 194 148 121 145 146 160 158 155 177 176 190 198 184 182 219 216 217 187 181 184 202 217 210 204 204 196 193 198 211
99 177 149 156 152 133 156 126 118 107 103 113 114 111 113 122 121 107 114 112 108 116 126 135 143 148 152 150 146 146 167 164 151 177 159 165 180 167 179 166 194 177 173 202 173 177 105 120 177 181 179 150 167 166 152 135 263 142 153 160 162 179 171 192 217 218 155 150 142 159 143 146 158 164 165 166 169 177 189 206 177 181 249 285 313 4 214 282 291 281 262 267 222 217 221 198 203
161 160 133 125 173 161 134 107 107 140 129 125 131 124 116 103 114 117 131 134 134 135 130 145 150 159 155 153 145 158 161 173 157 162 166 161 186 168 185 174 197 185 182 195 188 167 187 183 189 161 162 175 184 193 151 162 90 288 117 80 181 208 232 180 188 226 205 170 175 177 154 157 169 163 170 174 168 172 189 199 190 166 208 265 325 342 332 317 318 300 289 277 250 229 246 238 237
130 140 165 157 175 161 132 136 144 127 128 141 126 119 106 109 105 126 129 132 132 139 136 144 150 151 144 136 141 170 169 177 142 165 170 154 174 171 181 193 193 194 186 190 177 185 191 183 186 170 169 169 193 183 186 203 148 182 93 13 312 257 239 209 208 180 227 212 185 199 158 159 166 168 172 191 180 181 185 200 216 216 223 207 229 276 283 313 322 287 269 267 249 226 244 249 239
158 170 167 166 165 148 152 124 122 158 116 136 178 95 111 114 131 137 137 136 146 144 148 159 155 159 158 148 159 172 175 174 163 171 161 155 176 176 180 185 190 193 187 163 194 191 188 180 197 166 183 176 194 200 190 189 176 132 145 214 233 259 272 241 239 158 252 267 222 212 156 155 168 156 156 179 189 200 212 214 277 291 320 318 14 359 330 318 301 302 299 299 292 288 280 282 282
180 190 164 168 188 164 157 154 144 137 160 142 223 134 115 129 135 146 145 148 147 156 152 162 157 160 160 166 163 181 158 167 172 158 166 160 178 180 175 185 189 184 174 177 187 193 97 18 146 171 173 188 187 202 199 190 156 158 152 180 177 211 252 326 359 345 340 292 256 211 118 127 158 155 172 163 164 171 322 308 234 276 358 60 351 325 316 306 294 299 323 317 306 296 299 300 295
185 172 199 168 200 145 175 148 164 139 173 153 104 139 135 149 150 151 150 150 148 153 158 161 162 163 163 168 170 161 168 171 162 162 160 167 177 175 172 188 178 182 164 166 174 181 143 166 227 162 158 169 173 226 194 159 141 89 54 86 61 140 77 45 19 329 322 309 319 25 68 44 39 214 192 163 166 152 100 271 310 53 43 53 268 322 288 276 270 269 275 279 280 277 290 288 270
164 197 202 193 189 166 195 156 172 150 176 142 173 108 142 146 152 152 156 158 149 155 158 158 162 164 162 163 177 169 159 169 148 156 164 165 162 179 164 181 171 163 150 167 189 176 139 173 176 177 162 171 159 192 181 172 147 138 141 124 136 136 38 358 112 245 267 305 15 290 213 160 237 233 216 234 240 220 225 230 228 333 110 224 240 219 237 265 291 286 275 269 266 281 278 280 276
173 193 201 197 221 180 202 152 209 158 196 165 141 214 137 139 156 161 164 168 156 156 159 163 164 166 163 163 170 163 151 163 169 161 166 168 167 146 167 174 169 158 156 177 189 197 170 145 188 168 148 140 151 183 183 190 167 145 161 134 87 55 63 26 328 317 255 252 292 282 298 314 250 213 186 196 196 204 191 209 210 187 180 221 232 249 259 271 272 269 273 259 261 276 278 280 289
171 190 199 193 215 180 223 172 182 173 174 188 135 163 135 146 160 168 173 179 163 158 166 168 158 166 174 163 177 161 163 173 165 168 169 166 155 162 170 164 155 175 177 184 183 167 184 176 185 145 117 179 183 180 180 178 179 177 138 99 108 109 353 356 294 249 256 202 202 229 250 246 272 276 238 231 213 215 216 213 213 221 207 197 220 244 249 253 259 246 253 269 260 251 267 286 288
175 205 194 189 222 169 215 182 185 200 173 179 171 164 155 164 160 175 184 178 168 164 166 163 165 168 173 174 167 160 166 177 164 165 172 155 157 171 161 168 170 175 188 163 180 162 179 185 101 168 179 193 195 183 171 163 58 130 161 113 100 138 172 224 246 258 302 286 224 172 218 248 275 273 289 298 268 238 230 229 222 206 207 205 220 242 251 235 233 243 248 258 271 271 267 266 268
196 204 202 183 211 188 184 193 186 183 192 178 174 163 168 168 173 172 187 182 164 176 164 169 165 166 174 179 171 172 183 166 164 165 170 157 161 182 151 168 175 175 170 165 166 177 165 169 192 175 186 176 150 144 110 79 119 5 53 171 172 199 176 188 209 220 220 234 296 166 208 240 236 234 204 206 240 258 259 246 222 211 217 208 212 232 228 231 233 239 252 248 258 267 264 251 248
204 198 210 200 206 226 192 193 176 181 215 164 174 168 168 173 180 177 187 185 174 182 168 172 171 169 176 184 170 177 182 165 155 138 161 164 159 167 160 173 179 165 172 163 174 165 165 162 202 159 114 147 103 56 38 99 150 180 182 226 173 182 189 170 209 233 225 220 218 202 207 210 235 246 239 235 243 244 245 233 238 241 223 211 209 219 226 230 239 249 255 263 240 251 255 254 262
229 256 212 234 192 224 172 188 170 177 204 180 160 176 178 177 188 181 187 189 178 188 165 179 171 172 174 183 173 171 180 148 150 147 160 157 169 170 175 166 180 163 165 171 140 172 183 175 174 112 132 73 39 119 143 143 194 181 182 194 197 193 195 206 211 190 200 200 209 203 190 198 213 242 247 246 245 252 271 274 252 232 230 229 220 226 234 250 248 250 250 252 268 252 256 251 252
270 247 218 206 211 209 165 161 178 173 230 180 156 183 162 189 190 191 199 186 179 201 177 184 173 173 174 189 173 172 177 141 158 166 168 172 176 168 176 168 159 159 182 160 164 185 173 174 152 145 138 146 148 171 156 168 188 195 209 207 195 206 157 198 220 198 203 185 186 206 199 179 255 281 262 221 218 241 240 253 278 268 251 246 235 233 234 241 245 249 248 253 256 274 266 271 252
224 254 252 202 204 204 165 160 183 188 218 199 164 183 135 124 230 199 211 194 186 197 190 189 174 178 178 191 178 175 179 154 162 173 174 171 177 161 174 164 163 166 172 166 169 173 171 169 168 156 138 157 188 204 176 176 189 183 205 201 205 99 27 177 42 359 5 353 319 210 75 151 267 299 350 345 338 318 314 300 284 280 275 273 274 269 258 250 254 256 256 258 260 268 270 272 276
209 235 251 244 191 193 154 169 184 203 206 223 161 204 179 176 211 239 216 207 203 185 197 189 174 179 178 189 181 176 183 156 164 173 186 163 174 166 166 165 166 166 170 163 173 168 164 171 155 161 151 174 173 156 93 68 78 54 49 56 77 59 68 68 44 14 358 16 14 0 3 10 355 347 333 307 309 315 305 304 306 328 329 306 301 280 270 276 273 269 263 210 248 237 234 256 273
221 200 239 261 275 214 176 198 181 187 218 191 215 233 164 192 195 193 254 254 220 201 197 189 188 184 182 192 183 183 179 168 176 172 182 165 159 172 165 165 171 167 167 165 173 160 162 154 158 159 154 147 127 119 127 104 59 59 77 115 87 124 105 94 103 48 24 28 17 11 336 344 351 349 308 313 293 295 307 316 306 303 292 307 301 303 287 268 272 305 343 284 245 234 212 241 258
226 197 194 256 256 247 207 216 164 237 206 242 212 227 168 188 195 192 182 224 247 237 198 192 189 195 191 195 189 182 183 174 182 172 173 167 163 173 168 165 175 165 169 162 170 157 155 157 155 155 144 127 115 108 68 86 60 105 79 48 86 38 54 61 65 157 127 178 77 290 29 350 336 312 295 278 291 287 292 293 288 283 262 259 285 287 277 254 315 315 220 259 283 282 270 261 267
232 267 295 204 233 243 244 168 189 209 233 241 216 214 235 190 175 185 188 213 215 245 215 200 201 194 200 196 197 182 192 169 179 175 174 168 170 167 162 171 175 165 167 157 160 147 153 152 153 142 126 121 119 112 107 95 124 103 70 65 65 92 50 346 81 15 67 80 310 224 208 194 283 272 275 300 292 311 300 295 303 296 294 302 296 258 265 306 232 245 232 243 235 225 217 243 252
232 285 288 233 229 281 282 247 240 281 248 259 199 175 239 241 167 182 188 208 212 216 209 202 208 208 198 199 198 185 196 168 181 179 177 168 166 166 166 171 175 163 158 151 151 153 149 148 148 130 125 125 131 130 119 120 100 84 134 143 66 124 154 133 60 158 157 128 214 254 175 208 243 296 291 279 309 301 304 323 325 323 333 332 333 314 316 306 238 241 205 205 234 252 236 222 247
221 196 231 223 161 210 216 264 276 253 237 241 246 221 205 242 206 187 180 202 208 202 209 222 217 216 203 203 207 198 182 174 173 182 179 167 169 168 166 172 172 167 149 155 160 153 152 152 135 137 134 134 136 136 140 129 120 140 122 132 142 119 101 95 99 197 155 175 213 154 228 33 286 280 288 272 274 263 298 325 318 326 333 325 318 332 333 336 333 337 338 280 219 237 272 277 258
222 230 233 244 169 188 240 230 231 259 246 247 251 250 227 227 200 204 185 194 196 193 195 212 217 205 207 206 211 212 188 174 175 180 179 172 169 177 173 171 174 169 152 164 165 153 157 148 141 143 146 139 146 138 147 143 157 126 94 135 149 107 53 83 213 23 125 42 345 344 39 231 241 239 242 274 257 315 15 346 335 326 328 336 334 336 328 331 329 331 325 312 293 268 257 272 291
175 220 205 214 207 185 211 211 236 229 253 258 250 241 248 224 214 242 195 167 188 191 196 199 204 212 208 205 204 210 200 184 184 178 178 175 176 180 178 172 171 166 160 168 169 167 149 142 150 150 153 148 149 141 159 152 163 143 144 144 107 101 330 139 189 354 106 58 48 337 298 292 297 275 281 307 7 344 9 337 318 311 317 313 314 307 312 312 318 311 312 312 316 318 294 263 287
179 213 226 209 208 194 233 220 236 260 227 232 252 252 276 103 197 215 237 170 172 185 195 196 200 206 208 202 193 202 208 192 186 181 182 176 178 182 179 171 171 164 166 169 170 156 146 151 156 153 154 151 148 153 163 156 160 151 134 118 106 68 188 67 30 268 54 70 89 214 286 320 309 278 320 354 344 335 302 301 304 304 293 296 302 303 295 299 298 285 290 300 303 313 316 333 307
207 207 226 213 230 200 200 230 231 222 254 225 224 227 249 242 42 56 284 146 162 182 196 175 196 203 207 204 193 198 206 194 177 181 180 176 178 180 178 168 165 164 169 170 168 149 148 155 157 156 151 158 151 165 164 163 160 152 147 119 95 143 95 203 84 80 40 326 89 347 304 273 314 320 313 332 300 285 297 312 308 306 307 300 295 293 282 285 291 294 293 291 299 301 323 328 312
197 214 227 247 203 192 237 215 236 263 251 276 242 220 120 200 139 152 89 139 175 179 187 147 193 198 185 192 196 196 204 199 180 181 179 176 180 165 159 152 98 38 276 188 161 149 153 155 159 157 157 156 158 170 162 180 157 155 157 154 153 151 122 117 150 112 173 196 204 157 327 292 261 265 285 280 281 286 315 308 305 300 309 303 300 297 299 292 289 292 281 282 294 317 325 310 309
173 206 221 235 225 198 216 234 258 277 272 248 271 221 220 146 178 172 173 158 163 139 154 182 179 186 156 176 191 203 198 205 186 183 181 172 173 168 150 139 142 181 212 211 162 157 155 156 158 158 157 156 165 167 171 179 160 158 157 156 153 159 158 180 197 193 172 144 144 221 224 275 311 286 268 254 263 311 310 291 282 287 282 284 288 295 289 281 286 290 289 288 275 306 300 298 299
179 204 215 231 263 254 220 243 251 255 251 232 205 227 217 171 276 129 151 177 152 165 176 214 166 165 193 201 189 194 204 199 189 175 172 166 167 154 155 165 166 191 203 197 158 158 157 157 159 158 158 161 168 169 176 171 166 160 158 160 159 167 168 186 181 154 153 173 212 203 221 216 228 292 325 317 296 283 281 296 293 284 287 278 268 267 263 272 274 271 282 278 284 283 274 284 295
245 203 178 219 187 228 273 345 258 263 239 272 256 265 258 253 166 154 146 168 160 165 163 159 158 180 190 206 156 184 185 208 182 162 181 176 170 169 173 176 180 186 199 191 157 153 150 153 162 160 164 164 168 170 174 168 163 157 163 157 161 159 169 188 170 169 155 211 264 300 242 243 254 236 247 261 286 292 291 285 282 279 273 273 265 259 262 260 264 268 268 273 280 292 267 250 247
227 240 208 199 262 261 218 183 250 253 271 227 238 224 244 20 164 177 141 192 158 133 145 157 250 198 173 192 167 184 191 196 203 180 187 179 171 181 177 184 183 183 187 174 158 159 161 160 160 162 162 166 168 170 166 160 162 170 149 142 144 145 156 167 180 167 177 208 217 246 303 276 251 266 250 260 282 285 285 295 295 291 287 279 281 286 277 270 271 268 254 273 255 239 267 283 294
204 218 231 239 243 245 222 181 215 221 246 248 269 247 132 79 30 132 134 109 115 149 147 142 164 283 222 170 172 178 197 202 194 166 163 167 167 168 167 189 184 169 167 163 166 168 166 165 169 170 167 174 171 172 162 166 161 162 157 146 154 152 171 174 185 184 204 219 227 225 283 311 279 257 279 282 263 258 258 253 256 267 280 284 293 289 284 288 274 261 252 243 252 263 288 273 257
208 203 217 231 213 227 223 223 184 226 238 258 260 265 122 92 85 91 127 145 158 151 332 135 179 186 289 3 161 176 200 188 196 181 166 172 148 141 176 213 195 172 170 186 168 172 169 174 173 176 178 180 179 173 165 159 167 160 165 165 166 163 174 179 195 189 197 219 220 233 211 219 241 242 238 245 256 265 266 262 264 279 282 292 294 298 300 285 274 271 271 269 267 265 263 270 261